Weather History for College Park, MD

Change the Weather History Date:

Sunday, May 19, 2013

  Actual Average Record
Temperature  
Mean Temperature 68 °F -  
Max Temperature 76 °F 77 °F 97 °F (1962)
Min Temperature 61 °F 55 °F 39 °F (1956)
Cooling Degree Days 4    
Growing Degree Days 18 (Base 50)    
Moisture  
Dew Point 65 °F    
Average Humidity 94    
Maximum Humidity 100    
Minimum Humidity 75    
Precipitation  
Precipitation 0.00 in - - ()
Sea Level Pressure  
Sea Level Pressure 30.17 in    
Wind  
Wind Speed 1 mph (East)    
Max Wind Speed 6 mph    
Max Gust Speed -    
Visibility 6 miles    
Events      
Averages and records for this station are not official NWS values.
T = Trace of Precipitation, MM = Missing Value Source: NWS Daily Summary

Daily Weather History Graph

Daily Weather History Graph

Search for Another Location

Airport:

Trip Planner

Search our weather history database for the weather conditions in past years. The results will help you decide how hot, cold, wet, or windy it might be!

Date:

Astronomy

May. 19, 2013 Rise Set
Actual Time 5:51 AM EDT 8:17 PM EDT
Civil Twilight 5:21 AM EDT 8:47 PM EDT
Nautical Twilight 4:43 AM EDT 9:25 PM EDT
Astronomical Twilight 4:01 AM EDT 10:07 PM EDT
Moon 2:22 PM EDT (5/19) 2:10 AM EDT (5/19)
Length of Visible Light 15h 26m
Length of Day
14h 25m
Waxing Gibbous, 65% of the Moon is Illuminated
May 19
Waxing Gibbous
May 25
Full
May 31
Last Quarter
Jun 8
New
Jun 16
First Quarter

Hourly Weather History & Observations

Time (EDT) Temp. Dew Point Humidity Pressure Visibility Wind Dir Wind Speed Gust Speed Precip Events Conditions
12:05 AM 61.7 °F 60.8 °F 97% 30.22 in 7.0 mi Calm Calm - N/A   Overcast
12:30 AM 61.3 °F 61.0 °F 99% 30.22 in 7.0 mi Calm Calm - N/A   Overcast
12:50 AM 61.3 °F 61.3 °F 100% 30.22 in 5.0 mi ENE 4.6 mph - N/A   Overcast
1:10 AM 61.2 °F 61.2 °F 100% 30.21 in 3.0 mi East 3.5 mph - N/A   Overcast
1:30 AM 61.2 °F 61.2 °F 100% 30.21 in 4.0 mi North 3.5 mph - N/A   Overcast
1:50 AM 61.2 °F 61.2 °F 100% 30.20 in 3.0 mi NNE 3.5 mph - N/A   Overcast
2:10 AM 61.2 °F 61.2 °F 100% 30.20 in 2.5 mi Calm Calm - N/A   Overcast
2:30 AM 61.3 °F 61.3 °F 100% 30.20 in 2.5 mi Calm Calm - N/A   Overcast
2:50 AM 61.3 °F 61.3 °F 100% 30.19 in 2.5 mi Calm Calm - N/A   Overcast
3:10 AM 61.7 °F 61.7 °F 100% 30.19 in 4.0 mi Calm Calm - N/A   Overcast
3:30 AM 61.7 °F 61.7 °F 100% 30.18 in 5.0 mi Calm Calm - N/A   Overcast
4:10 AM 61.7 °F 61.7 °F 100% 30.18 in 5.0 mi Calm Calm - N/A   Overcast
4:30 AM 61.7 °F 61.7 °F 100% 30.17 in 4.0 mi Calm Calm - N/A   Overcast
4:50 AM 61.7 °F 61.7 °F 100% 30.17 in 3.0 mi Calm Calm - N/A   Overcast
5:10 AM 61.9 °F 61.9 °F 100% 30.17 in 1.8 mi Calm Calm - N/A   Overcast
5:30 AM 61.9 °F 61.9 °F 100% 30.17 in 1.8 mi Calm Calm - N/A   Overcast
5:50 AM 61.9 °F 61.9 °F 100% 30.16 in 1.8 mi Calm Calm - N/A   Overcast
6:10 AM 62.1 °F 62.1 °F 100% 30.17 in 2.5 mi Calm Calm - N/A   Overcast
6:30 AM 62.2 °F 62.2 °F 100% 30.17 in 1.2 mi Calm Calm - N/A   Overcast
6:50 AM 62.6 °F 62.6 °F 100% 30.18 in 0.8 mi Calm Calm - N/A   Overcast
7:10 AM 62.6 °F 62.6 °F 100% 30.18 in 0.5 mi Calm Calm - N/A   Overcast
7:30 AM 63.0 °F 63.0 °F 100% 30.18 in 0.8 mi Calm Calm - N/A   Overcast
7:50 AM 63.1 °F 63.1 °F 100% 30.19 in 0.8 mi Calm Calm - N/A   Overcast
8:30 AM 63.9 °F 63.9 °F 100% 30.20 in 0.8 mi Calm Calm - N/A   Overcast
8:50 AM 64.0 °F 64.0 °F 100% 30.21 in 1.0 mi Calm Calm - N/A   Overcast
9:10 AM 64.4 °F 64.4 °F 100% 30.21 in 1.2 mi Calm Calm - N/A   Overcast
9:30 AM 64.6 °F 64.6 °F 100% 30.21 in 1.5 mi Calm Calm - N/A   Overcast
9:50 AM 65.3 °F 65.3 °F 100% 30.21 in 2.0 mi Calm Calm - N/A   Overcast
10:10 AM 65.3 °F 65.3 °F 100% 30.21 in 4.0 mi Calm Calm - N/A   Overcast
10:30 AM 65.7 °F 65.7 °F 100% 30.21 in 5.0 mi Calm Calm - N/A   Overcast
10:50 AM 65.5 °F 65.5 °F 100% 30.21 in 4.0 mi Calm Calm - N/A   Overcast
11:10 AM 66.2 °F 66.2 °F 100% 30.21 in 2.5 mi Calm Calm - N/A   Overcast
11:30 AM 66.6 °F 66.6 °F 100% 30.20 in 7.0 mi East 5.8 mph - N/A   Overcast
11:50 AM 67.5 °F 67.1 °F 99% 30.20 in 10.0 mi Calm Calm - N/A   Overcast
12:10 PM 67.3 °F 66.9 °F 99% 30.20 in 10.0 mi Calm Calm - N/A   Overcast
12:50 PM 68.4 °F 67.1 °F 96% 30.20 in 10.0 mi Calm Calm - N/A   Overcast
1:10 PM 69.1 °F 67.3 °F 94% 30.18 in 10.0 mi Calm Calm - N/A   Overcast
1:30 PM 69.3 °F 66.9 °F 92% 30.18 in 10.0 mi Calm Calm - N/A   Overcast
1:50 PM 69.8 °F 67.1 °F 91% 30.17 in 10.0 mi Calm Calm - N/A   Overcast
2:10 PM 70.0 °F 67.3 °F 91% 30.16 in 10.0 mi Calm Calm - N/A   Overcast
2:30 PM 70.7 °F 67.6 °F 90% 30.15 in 10.0 mi Calm Calm - N/A   Overcast
3:10 PM 71.6 °F 68.0 °F 88% 30.14 in 10.0 mi Calm Calm - N/A   Overcast
3:30 PM 71.8 °F 68.4 °F 89% 30.14 in 10.0 mi East 3.5 mph - N/A   Overcast
4:10 PM 73.8 °F 67.6 °F 81% 30.12 in 10.0 mi Calm Calm - N/A   Overcast
4:30 PM 74.8 °F 67.8 °F 79% 30.12 in 10.0 mi Calm Calm - N/A   Overcast
4:50 PM 75.2 °F 68.5 °F 80% 30.12 in 10.0 mi East 3.5 mph - N/A   Mostly Cloudy
5:10 PM 75.7 °F 68.2 °F 77% 30.11 in 10.0 mi ENE 5.8 mph - N/A   Mostly Cloudy
5:30 PM 76.6 °F 68.2 °F 75% 30.11 in 10.0 mi Calm Calm - N/A   Scattered Clouds
5:50 PM 76.3 °F 67.8 °F 75% 30.11 in 10.0 mi Calm Calm - N/A   Scattered Clouds
6:10 PM 75.7 °F 68.0 °F 77% 30.11 in 10.0 mi East 4.6 mph - N/A   Overcast
6:30 PM 75.2 °F 68.4 °F 79% 30.10 in 10.0 mi ESE 5.8 mph - N/A   Overcast
6:50 PM 73.9 °F 68.9 °F 84% 30.10 in 10.0 mi SE 4.6 mph - N/A   Overcast
7:10 PM 72.9 °F 69.1 °F 88% 30.11 in 10.0 mi Calm Calm - N/A   Overcast
7:30 PM 72.7 °F 68.9 °F 88% 30.11 in 10.0 mi Calm Calm - N/A   Overcast
7:50 PM 72.5 °F 68.5 °F 87% 30.11 in 10.0 mi East 3.5 mph - N/A   Overcast
8:10 PM 72.1 °F 68.4 °F 88% 30.11 in 10.0 mi Calm Calm - N/A   Overcast
8:30 PM 72.0 °F 68.4 °F 88% 30.11 in 10.0 mi Calm Calm - N/A   Overcast
8:50 PM 71.6 °F 68.4 °F 89% 30.12 in 10.0 mi Calm Calm - N/A   Overcast
9:10 PM 71.4 °F 68.2 °F 89% 30.12 in 10.0 mi Calm Calm - N/A   Overcast
9:30 PM 71.2 °F 68.0 °F 89% 30.13 in 10.0 mi Calm Calm - N/A   Overcast
9:50 PM 70.7 °F 68.0 °F 91% 30.14 in 10.0 mi Calm Calm - N/A   Overcast
10:05 PM 70.0 °F 67.5 °F 92% 30.15 in 10.0 mi Calm Calm - N/A   Overcast
10:30 PM 69.6 °F 67.8 °F 94% 30.15 in 10.0 mi Calm Calm - N/A   Overcast
10:50 PM 69.4 °F 67.8 °F 95% 30.15 in 10.0 mi Calm Calm - N/A   Overcast
11:10 PM 69.4 °F 68.0 °F 95% 30.14 in 10.0 mi Calm Calm - N/A   Overcast
11:30 PM 69.3 °F 68.2 °F 96% 30.13 in 7.0 mi Calm Calm - N/A   Overcast